Tracking 19192 objects as of 20-Jun-2018
HD Live streaming from Space Station
objects crossing your sky now

LEMUR 2 MCPEAKE

Track LEMUR 2 MCPEAKE now!
10-day predictions
LEMUR 2 MCPEAKE is classified as:


NORAD ID: 42782
Int'l Code: 2017-036T
Perigee: 497.2 km
Apogee: 516.1 km
Inclination: 97.4 °
Period: 94.6 minutes
Semi major axis: 6877 km
RCS: Unknown
Launch date: June 23, 2017
Source: United States (US)
Launch site: SRIHARIKOTA (SRI)
Uplink (MHz):
Downlink (MHz):
Beacon (MHz):
Mode:
Call sign:
Status:

aabbcc
Your satellite tracking list
Your tracking list is empty




NASA's NSSDC Master Catalog

Two Line Element Set (TLE):
1 42782U 17036T   18171.15302462  .00001291  00000-0  59304-4 0  9999
2 42782  97.4022 231.0325 0013702  67.6670 292.6017 15.22104795 54967
Source of the keplerian elements: AFSPC